{"data":{"norad_id":59960,"epoch":"2026-09-21T21:32:02.377536Z","epoch_age_seconds":56913,"freshness":"FRESH","line1":"1 59960U 24107R   26264.89724974  .00000652  00000+0  30454-4 0  9995","line2":"2 59960  53.1583 230.8420 0001386  89.2930 270.8232 15.34386212129881","mean_motion":15.34386212,"eccentricity":0.0001386,"inclination_deg":53.1583,"raan_deg":230.842,"arg_perigee_deg":89.293,"mean_anomaly_deg":270.8232,"bstar":3.0454e-5,"rev_number":12988,"period_min":93.848601397625,"perigee_km":461.79607521839,"apogee_km":463.69236749295,"semimajor_km":6840.8812213557,"source":"CELESTRAK","updated_at":"2026-09-22T09:00:49.118399Z"}}